When you browse on this site, cookies collect data to enhance your experience and personalize the content and advertising you see.
Visit our Privacy Policy to learn more. By continuing to use the site, you agree to this use of cookies and data.
  • In Hungary
  • List of Countries
  • For 7 days
  • Water Temperature
  • Satellite Maps
  • Weather Map
  • News
  • Weather Widgets
  • user-avatar
    Login

    Hourly Weather Murray

    Today, 21 July, Sunday

    Time Temperature Precipitation Wind Pressure Humidity
    00:00 +25°C° 0 mm 1 mps 650 mmHg 34%
    01:00 +24°C° 0 mm 1 mps 650 mmHg 35%
    02:00 +24°C° 0 mm 1 mps 650 mmHg 35%
    03:00 +23°C° 0 mm 1 mps 650 mmHg 35%
    04:00 +23°C° 0 mm 1 mps 651 mmHg 35%
    05:00 +24°C° 0 mm 2 mps 651 mmHg 33%
    06:00 +26°C° 0 mm 2 mps 652 mmHg 30%
    07:00 +28°C° 0 mm 2 mps 652 mmHg 27%
    08:00 +30°C° 0 mm 2 mps 653 mmHg 23%
    09:00 +32°C° 0 mm 2 mps 654 mmHg 20%
    10:00 +35°C° 0 mm 2 mps 654 mmHg 17%
    11:00 +37°C° 0 mm 2 mps 655 mmHg 14%
    12:00 +38°C° 0 mm 3 mps 654 mmHg 13%
    13:00 +38°C° 0 mm 3 mps 654 mmHg 13%
    14:00 +39°C° 0 mm 3 mps 654 mmHg 12%
    15:00 +39°C° 0 mm 3 mps 654 mmHg 13%
    16:00 +38°C° 0 mm 3 mps 653 mmHg 13%
    17:00 +38°C° 0 mm 3 mps 653 mmHg 14%
    18:00 +35°C° 0 mm 2 mps 653 mmHg 18%
    19:00 +31°C° 0 mm 2 mps 652 mmHg 22%
    20:00 +28°C° 0 mm 1 mps 652 mmHg 27%
    21:00 +27°C° 0 mm 2 mps 652 mmHg 31%
    22:00 +26°C° 0 mm 2 mps 652 mmHg 35%
    23:00 +26°C° 0 mm 2 mps 652 mmHg 39%

    Tomorrow, 22 July, Monday

    Time Temperature Precipitation Wind Pressure Humidity
    00:00 +26°C° 0 mm 2 mps 652 mmHg 37%
    01:00 +26°C° 0 mm 2 mps 652 mmHg 35%
    02:00 +26°C° 0 mm 2 mps 652 mmHg 33%
    03:00 +25°C° 0 mm 3 mps 653 mmHg 33%
    04:00 +25°C° 0 mm 3 mps 653 mmHg 33%
    05:00 +24°C° 0 mm 3 mps 653 mmHg 32%
    06:00 +26°C° 0 mm 3 mps 654 mmHg 28%
    07:00 +29°C° 0 mm 2 mps 654 mmHg 24%
    08:00 +31°C° 0 mm 2 mps 655 mmHg 20%
    09:00 +34°C° 0 mm 2 mps 655 mmHg 17%
    10:00 +36°C° 0 mm 2 mps 656 mmHg 14%
    11:00 +38°C° 0 mm 2 mps 656 mmHg 11%
    12:00 +39°C° 0 mm 3 mps 656 mmHg 11%
    13:00 +39°C° 0 mm 3 mps 656 mmHg 10%
    14:00 +40°C° 0 mm 3 mps 656 mmHg 10%
    15:00 +40°C° 0 mm 3 mps 655 mmHg 11%
    16:00 +39°C° 0 mm 3 mps 655 mmHg 11%
    17:00 +39°C° 0 mm 3 mps 655 mmHg 12%
    18:00 +36°C° 0 mm 3 mps 654 mmHg 14%
    19:00 +34°C° 0 mm 2 mps 653 mmHg 16%
    20:00 +30°C° 0 mm 1 mps 652 mmHg 18%
    21:00 +29°C° 0 mm 1 mps 653 mmHg 20%
    22:00 +29°C° 0 mm 1 mps 653 mmHg 22%
    23:00 +28°C° 0 mm 1 mps 653 mmHg 23%

    Day after tomorrow, 23 July, Tuesday

    Time Temperature Precipitation Wind Pressure Humidity
    00:00 +28°C° 0 mm 2 mps 653 mmHg 23%
    01:00 +27°C° 0 mm 2 mps 653 mmHg 23%
    02:00 +27°C° 0 mm 3 mps 653 mmHg 22%
    03:00 +27°C° 0 mm 3 mps 653 mmHg 23%
    04:00 +26°C° 0 mm 2 mps 654 mmHg 24%
    05:00 +26°C° 0 mm 2 mps 654 mmHg 25%
    06:00 +28°C° 0 mm 2 mps 654 mmHg 24%
    07:00 +30°C° 0 mm 2 mps 655 mmHg 22%
    08:00 +32°C° 0 mm 2 mps 656 mmHg 21%
    09:00 +35°C° 0 mm 2 mps 656 mmHg 19%
    10:00 +36°C° 0 mm 2 mps 656 mmHg 17%
    11:00 +38°C° 0 mm 2 mps 656 mmHg 15%
    12:00 +39°C° 0 mm 2 mps 656 mmHg 14%
    13:00 +39°C° 0 mm 3 mps 656 mmHg 13%
    14:00 +40°C° 0 mm 3 mps 656 mmHg 12%
    15:00 +40°C° 0 mm 4 mps 655 mmHg 14%
    16:00 +39°C° 0 mm 5 mps 654 mmHg 16%
    17:00 +39°C° 0 mm 6 mps 654 mmHg 18%
    18:00 +35°C° 0 mm 4 mps 653 mmHg 21%
    19:00 +33°C° 0 mm 3 mps 653 mmHg 24%
    20:00 +30°C° 0 mm 1 mps 652 mmHg 27%
    21:00 +29°C° 0.1 mm 2 mps 652 mmHg 30%
    22:00 +29°C° 0.1 mm 3 mps 653 mmHg 32%
    23:00 +28°C° 0.1 mm 3 mps 653 mmHg 34%

    24 July, Wednesday

    Time Temperature Precipitation Wind Pressure Humidity
    00:00 +28°C° 0.1 mm 3 mps 653 mmHg 36%
    01:00 +27°C° 0.1 mm 2 mps 653 mmHg 38%
    02:00 +27°C° 0.1 mm 1 mps 653 mmHg 40%
    03:00 +27°C° 0 mm 2 mps 653 mmHg 41%
    04:00 +26°C° 0 mm 2 mps 653 mmHg 42%
    05:00 +26°C° 0 mm 2 mps 653 mmHg 43%
    06:00 +27°C° 0 mm 2 mps 654 mmHg 41%
    07:00 +29°C° 0 mm 2 mps 654 mmHg 38%
    08:00 +30°C° 0 mm 2 mps 655 mmHg 36%
    09:00 +32°C° 0 mm 2 mps 655 mmHg 33%
    10:00 +34°C° 0 mm 2 mps 655 mmHg 29%
    11:00 +35°C° 0 mm 2 mps 655 mmHg 26%
    12:00 +36°C° 0 mm 3 mps 655 mmHg 26%
    13:00 +36°C° 0 mm 3 mps 655 mmHg 26%
    14:00 +36°C° 0 mm 3 mps 654 mmHg 25%
    15:00 +36°C° 0 mm 3 mps 654 mmHg 25%
    16:00 +36°C° 0 mm 3 mps 653 mmHg 25%
    17:00 +36°C° 0 mm 3 mps 653 mmHg 25%
    18:00 +34°C° 0 mm 2 mps 653 mmHg 28%
    19:00 +31°C° 0 mm 2 mps 652 mmHg 32%
    20:00 +29°C° 0 mm 1 mps 652 mmHg 35%
    21:00 +28°C° 0 mm 1 mps 652 mmHg 36%
    22:00 +27°C° 0 mm 1 mps 652 mmHg 38%
    23:00 +26°C° 0 mm 1 mps 653 mmHg 39%

    25 July, Thursday

    Time Temperature Precipitation Wind Pressure Humidity
    00:00 +25°C° 0.1 mm 1 mps 652 mmHg 44%
    01:00 +25°C° 0.1 mm 1 mps 652 mmHg 48%
    02:00 +24°C° 0.1 mm 1 mps 652 mmHg 53%
    03:00 +23°C° 0.1 mm 1 mps 652 mmHg 55%
    04:00 +23°C° 0.1 mm 1 mps 652 mmHg 57%
    05:00 +22°C° 0.1 mm 1 mps 652 mmHg 60%
    06:00 +24°C° 0 mm 1 mps 652 mmHg 54%
    07:00 +26°C° 0 mm 1 mps 653 mmHg 48%
    08:00 +28°C° 0 mm 1 mps 654 mmHg 43%
    09:00 +30°C° 0 mm 1 mps 654 mmHg 37%
    10:00 +32°C° 0 mm 2 mps 654 mmHg 32%
    11:00 +35°C° 0 mm 2 mps 655 mmHg 26%
    12:00 +36°C° 0 mm 3 mps 654 mmHg 24%
    13:00 +36°C° 0 mm 3 mps 654 mmHg 21%
    14:00 +37°C° 0 mm 4 mps 654 mmHg 18%
    15:00 +37°C° 0 mm 4 mps 654 mmHg 18%
    16:00 +37°C° 0 mm 4 mps 653 mmHg 17%
    17:00 +36°C° 0 mm 3 mps 653 mmHg 17%
    18:00 +34°C° 0 mm 3 mps 653 mmHg 20%
    19:00 +31°C° 0 mm 2 mps 653 mmHg 23%
    20:00 +28°C° 0 mm 2 mps 653 mmHg 26%
    21:00 +27°C° 0 mm 2 mps 652 mmHg 36%
    22:00 +26°C° 0 mm 3 mps 652 mmHg 46%
    23:00 +25°C° 0 mm 4 mps 652 mmHg 56%

    26 July, Friday

    Time Temperature Precipitation Wind Pressure Humidity
    00:00 +24°C° 0 mm 3 mps 652 mmHg 57%
    01:00 +24°C° 0 mm 2 mps 652 mmHg 58%
    02:00 +24°C° 0 mm 2 mps 652 mmHg 59%
    03:00 +24°C° 0 mm 1 mps 652 mmHg 60%
    04:00 +23°C° 0 mm 1 mps 652 mmHg 60%
    05:00 +23°C° 0 mm 1 mps 651 mmHg 60%
    06:00 +25°C° 0 mm 1 mps 652 mmHg 55%
    07:00 +27°C° 0 mm 1 mps 653 mmHg 49%
    08:00 +29°C° 0 mm 2 mps 654 mmHg 43%
    09:00 +30°C° 0 mm 2 mps 654 mmHg 38%
    10:00 +32°C° 0 mm 2 mps 654 mmHg 33%
    11:00 +35°C° 0 mm 3 mps 654 mmHg 28%
    12:00 +35°C° 0.1 mm 3 mps 654 mmHg 28%
    13:00 +36°C° 0.1 mm 3 mps 654 mmHg 27%
    14:00 +36°C° 0.1 mm 4 mps 654 mmHg 27%
    15:00 +36°C° 0.2 mm 3 mps 654 mmHg 28%
    16:00 +36°C° 0.2 mm 3 mps 654 mmHg 29%
    17:00 +35°C° 0.2 mm 2 mps 654 mmHg 30%
    18:00 +32°C° 0.2 mm 2 mps 653 mmHg 37%
    19:00 +29°C° 0.2 mm 2 mps 652 mmHg 45%
    20:00 +26°C° 0.2 mm 2 mps 652 mmHg 53%
    21:00 +26°C° 0.1 mm 2 mps 652 mmHg 53%
    22:00 +25°C° 0.1 mm 1 mps 652 mmHg 54%
    23:00 +24°C° 0.1 mm 1 mps 652 mmHg 54%
    Show more